Regional Weather Roundup
Issued by NWS Jackson, KY

Home | Current Version | Previous Version | Graphics & Text | Print | Product List | Glossary On
Versions: 1 2 3 4 5 6 7 8 9 10 11 12 13 14 15 16 17 18 19 20 21 22 23 24 25 26 27 28 29 30 31 32 33 34 35 36 37 38 39 40 41 42 43 44 45 46 47 48 49 50
411
ASUS43 KJKL 021010
RWRJKL

EAST KENTUCKY HOURLY WEATHER ROUNDUP
NATIONAL WEATHER SERVICE JACKSON KY
600 AM EDT MON MAY 02 2016

NOTE: "FAIR" INDICATES FEW OR NO CLOUDS BELOW 12,000 FEET WITH
NO SIGNIFICANT WEATHER AND/OR OBSTRUCTIONS TO VISIBILITY.

* THESE REPORTS ARE NOT UNDER NWS QUALITY CONTROL AND MAY NOT
  REPORT WEATHER SUCH AS PRECIPITATION AND FOG.

KYZ079-080-083-085-087-088-110-112-115-119-120-021100
...EASTERN KENTUCKY...

CITY           SKY/WX    TMP DP  RH WIND       PRES   REMARKS
JACKSON        CLOUDY    65  60  84 VRB3      29.96R
LONDON         MOCLDY    65  60  84 S5        29.97S
SOMERSET*      CLOUDY    64  61  88 CALM      29.98R
MONTICELLO*    CLOUDY    67  63  87 W13       29.99R
WILLIAMSBURG*  MOSUNNY   59  59 100 CALM      29.99S
MIDDLESBORO*   CLOUDY    62  62 100 CALM      30.00S
HARLAN APT*    CLOUDY    59  59 100 CALM      30.01R VSB<1/4
HAZARD APT*    PTSUNNY   64  64 100 SW8       29.97S
BLACK MTN*       N/A     57  57 100 S3          N/A
BIG SANDY APT* CLOUDY    64  62  94 CALM      29.96S
MOREHEAD APT*  CLOUDY    64  61  88 VRB5      29.96R
$$

KYZ035-036-041-042-044-050-067-078-099-021100
...CENTRAL KENTUCKY...

CITY           SKY/WX    TMP DP  RH WIND       PRES   REMARKS
MT STERLING*   PTCLDY    63  61  94 NW7       29.97R
FLEMING/MASON* CLOUDY    60  59  96 W7        29.95R
DANVILLE*      MOCLDY    63  59  88 CALM      29.98R
RICHMOND*      CLOUDY    66  63  88 NW8       29.95R
LEXINGTON      CLEAR     61  58  90 W8        29.96R
FRANKFORT      CLOUDY    61  56  83 W3        29.95R
LOUISVILLE     CLOUDY    62  56  80 W7        29.96R
LEBANON*         N/A     61  59  94 W3        29.97R
BOWLING GREEN  CLOUDY    63  51  65 VRB6      29.99S
$$

KYZ091>093-OHZ055-061-077-WVZ005-015-034-035-042-021100
...SOUTHERN OHIO/WEST VIRGINIA...

CITY           SKY/WX    TMP DP  RH WIND       PRES   REMARKS
COVINGTON      CLOUDY    58  57  97 CALM      29.91S
COLUMBUS       CLOUDY    54  54 100 N9        29.89R
DAYTON         FOG       53  53 100 CALM      29.91S VSB 3/4
WILMINGTON     MOCLDY    58  58 100 W3        29.90R
HUNTINGTON     MOCLDY    62  59  90 VRB3      29.92R
CHARLESTON     MOCLDY    62  59  90 SW5       29.93R
PINEVILLE*     CLOUDY    58  55  92 MISG      30.04R
BECKLEY        MOCLDY    60  58  92 SW7       30.01R
$$

VAZ002-007-008-TNZ017-027-036-066-071-021100
...SOUTHWEST VIRGINIA/EAST TENNESSEE...

CITY           SKY/WX    TMP DP  RH WIND       PRES   REMARKS
WISE*            N/A     61  61 100 SW5       30.04S
BRISTOL        CLOUDY    66  62  87 SW6       30.01S
MORRISTOWN*    SUNNY     64  63  94 NW3       30.01R
SEVIERVILLE*   SUNNY     57  57 100 CALM      30.00S
KNOXVILLE      MOCLDY    64  61  90 SW9       30.00R
OAK RIDGE      CLOUDY    66  63  90 W5        30.02R
CROSSVILLE     MOCLDY    62  57  83 CALM      30.03S
NASHVILLE      CLOUDY    66  63  88 NW5       29.98R
$$

...KEY TO REMARKS...
VSB - VISIBILITY IN MILES
WCI - WIND CHILL INDEX
HX  - HEAT INDEX

$$




USA.gov is the U.S. government's official web portal to all federal, state and local government web resources and services.